TimeMST,TemperatureF,Dew PointF,Humidity,Sea Level PressureIn,VisibilityMPH,Wind Direction,Wind SpeedMPH,Gust SpeedMPH,PrecipitationIn,Events,Conditions,WindDirDegrees,DateUTC
12:53 AM,30.9,24.1,76,30.04,10.0,SSW,9.2,-,N/A,,Clear,200,2012-11-17 07:53:00
1:53 AM,32.0,23.0,69,30.01,10.0,SSW,10.4,-,N/A,,Clear,210,2012-11-17 08:53:00
2:53 AM,32.0,23.0,69,30.01,10.0,SW,9.2,-,N/A,,Clear,220,2012-11-17 09:53:00
3:53 AM,33.1,23.0,66,30.02,10.0,West,10.4,-,N/A,,Clear,260,2012-11-17 10:53:00
4:53 AM,34.0,23.0,64,30.04,10.0,West,11.5,-,N/A,,Clear,270,2012-11-17 11:53:00
5:53 AM,30.9,21.9,69,30.08,10.0,West,12.7,-,N/A,,Clear,270,2012-11-17 12:53:00
6:53 AM,30.0,21.0,69,30.11,10.0,West,10.4,-,N/A,,Clear,270,2012-11-17 13:53:00
7:53 AM,39.9,26.1,58,30.11,10.0,WNW,10.4,-,N/A,,Clear,290,2012-11-17 14:53:00
8:53 AM,51.1,28.0,41,30.08,10.0,NNW,10.4,-,N/A,,Clear,330,2012-11-17 15:53:00
9:53 AM,57.9,27.0,31,30.07,10.0,North,12.7,20.7,N/A,,Clear,10,2012-11-17 16:53:00
10:53 AM,62.1,28.9,29,30.07,10.0,NNE,17.3,-,N/A,,Clear,30,2012-11-17 17:53:00
11:53 AM,64.0,28.9,27,30.04,10.0,NNE,12.7,19.6,N/A,,Clear,30,2012-11-17 18:53:00
12:53 PM,64.0,28.0,26,30.03,10.0,NE,13.8,-,N/A,,Clear,50,2012-11-17 19:53:00
1:53 PM,64.0,28.0,26,30.03,10.0,ENE,12.7,-,N/A,,Clear,60,2012-11-17 20:53:00
2:53 PM,63.0,27.0,26,30.04,10.0,ENE,10.4,-,N/A,,Clear,60,2012-11-17 21:53:00
3:53 PM,60.1,26.1,27,30.06,10.0,East,6.9,-,N/A,,Clear,100,2012-11-17 22:53:00
4:53 PM,46.9,24.1,41,30.08,10.0,East,8.1,-,N/A,,Clear,100,2012-11-17 23:53:00
5:53 PM,42.1,23.0,47,30.11,10.0,SE,10.4,-,N/A,,Clear,140,2012-11-18 00:53:00
6:53 PM,37.9,23.0,55,30.13,10.0,SSE,10.4,-,N/A,,Clear,150,2012-11-18 01:53:00
7:53 PM,36.0,23.0,59,30.10,10.0,SE,8.1,-,N/A,,Clear,140,2012-11-18 02:53:00
8:53 PM,35.1,21.9,59,30.06,10.0,SE,9.2,-,N/A,,Clear,140,2012-11-18 03:53:00
9:53 PM,37.9,25.0,60,30.01,10.0,SE,10.4,-,N/A,,Clear,140,2012-11-18 04:53:00
10:53 PM,37.9,25.0,60,29.99,10.0,SE,10.4,-,N/A,,Clear,140,2012-11-18 05:53:00
11:53 PM,37.9,25.0,60,29.96,10.0,SSE,9.2,-,N/A,,Clear,150,2012-11-18 06:53:00